Location: Ariel
(45.9570°N, 122.5700°W)
Time: 17:51:00
(UTC-07:00)

Transit 4A - Pass Details

Date: 19 July 2019
Orbit: 863 x 981 km, 66.8° (Epoch: 21 August)

Event Time Altitude Azimuth Distance (km) Brightness Sun altitude
Rises 02:25:57 0° 187° (S) 3,628 - -21.4°
Reaches altitude 10° 02:28:36 10° 181° (S) 2,699 - -21.2°
Exits shadow 02:32:00 30° 159° (SSE) 1,680 8.8 -21.0°
Maximum altitude 02:34:30 42° 112° (ESE) 1,360 8.7 -20.9°
Drops below altitude 10° 02:40:28 10° 44° (NE) 2,742 11.3 -20.5°
Sets 02:43:10 0° 38° (NE) 3,692 12.4 -20.4°
